Location: Meadowbank Aerodrome
(65.0250°N, 96.0705°W)
Time: 15:30:56
(UTC-05:00)

Cosmos 2221 - Visible Passes

Search period start: 30 March 2017 00:00
Search period end: 09 April 2017 00:00
Orbit: 595 x 616 km, 82.5° (Epoch: 29 March)

Date Brightness Start Highest point End Pass type
(mag) Time Alt. Az. Time Alt. Az. Time Alt. Az.
30 Mar 5.3 01:15:51 10° W 01:18:46 17° NW 01:21:43 10° N visible
30 Mar 2.6 22:11:11 10° S 22:15:30 58° E 22:19:51 10° NNE visible
30 Mar 4.0 23:49:15 10° SW 23:53:21 37° WNW 23:57:28 10° N visible
31 Mar 5.4 01:29:47 10° WNW 01:32:14 14° NNW 01:34:41 10° N visible
31 Mar 6.1 04:51:43 10° NNE 04:51:47 10° NNE 04:51:51 10° NNE visible
31 Mar 2.5 22:24:10 10° S 22:28:34 79° ESE 22:33:00 10° NNE visible
01 Apr 4.5 00:02:46 10° WSW 00:06:38 29° NW 00:10:31 10° N visible
01 Apr 5.6 01:43:52 10° NW 01:45:43 12° NNW 01:47:35 10° N visible
01 Apr 5.8 05:03:54 10° N 05:05:19 11° NNE 05:06:45 10° NE visible
01 Apr 2.7 22:37:15 10° SSW 22:41:40 78° WNW 22:46:07 10° NNE visible
02 Apr 4.9 00:16:24 10° WSW 00:19:59 23° NW 00:23:34 10° N visible
02 Apr 5.8 01:58:08 10° NW 01:59:14 11° NNW 02:00:21 10° N visible
02 Apr 5.7 05:16:44 10° N 05:18:50 13° NNE 05:20:56 10° ENE visible
02 Apr 3.2 21:13:24 10° SSE 21:17:23 34° E 21:21:23 10° NNE visible
02 Apr 3.2 22:50:29 10° SSW 22:54:50 58° WNW 22:59:13 10° NNE visible
03 Apr 5.2 00:30:09 10° W 00:33:22 19° NW 00:36:35 10° N visible
03 Apr 5.6 05:29:40 10° N 05:32:19 15° NE 05:34:57 10° ENE visible
03 Apr 2.9 21:26:09 10° SSE 21:30:21 46° E 21:34:36 10° NNE visible
03 Apr 3.8 23:03:49 10° SW 23:08:03 44° WNW 23:12:18 10° NNE visible
04 Apr 5.5 00:44:00 10° WNW 00:46:48 16° NW 00:49:35 10° N visible
04 Apr 2.6 21:39:02 10° S 21:43:23 64° E 21:47:46 10° NNE visible
04 Apr 4.3 23:17:16 10° WSW 23:21:18 34° WNW 23:25:22 10° N visible
05 Apr 5.6 00:57:58 10° WNW 01:00:15 14° NNW 01:02:32 10° N visible
05 Apr 6.1 04:19:06 10° NNE 04:19:49 10° NNE 04:20:33 10° NNE visible
05 Apr 2.5 21:52:03 10° SSW 21:56:28 86° ESE 22:00:55 10° NNE visible
05 Apr 4.8 23:30:49 10° WSW 23:34:36 27° NW 23:38:25 10° N visible
06 Apr 5.8 01:12:06 10° NW 01:13:45 12° NNW 01:15:24 10° N visible
06 Apr 5.9 04:31:43 10° N 04:33:21 12° NNE 04:34:59 10° NE visible
06 Apr 2.9 22:05:11 10° SSW 22:09:36 72° WNW 22:14:01 10° NNE visible
06 Apr 5.2 23:44:29 10° W 23:47:57 22° NW 23:51:26 10° N visible
07 Apr 6.0 01:26:32 10° NNW 01:27:17 10° NNW 01:28:02 10° N visible
07 Apr 5.8 04:44:36 10° N 04:46:51 14° NNE 04:49:05 10° ENE visible
07 Apr 3.5 22:18:26 10° SW 22:22:46 53° WNW 22:27:07 10° NNE visible
07 Apr 5.5 23:58:15 10° W 00:01:21 18° NW 00:04:27 10° N visible
08 Apr 5.7 04:57:32 10° N 05:00:19 16° NE 05:03:03 10° ENE visible
08 Apr 4.1 22:31:48 10° SW 22:35:59 41° WNW 22:40:11 10° N visible
